Regional Weather Roundup
Issued by NWS Mobile, AL

Current Version | Previous Version | Text Only | Print | Product List | Glossary On
Versions: 1 2 3 4 5 6 7 8 9 10 11 12 13 14 15 16 17 18 19 20 21 22 23 24 25 26 27 28
000
ASUS44 KMOB 241813
RWRMOB
REGIONAL WEATHER ROUNDUP
NATIONAL WEATHER SERVICE MOBILE AL
100 PM CDT SUN SEP 24 2017

NOTE: "FAIR" INDICATES FEW OR NO CLOUDS BELOW 12,000 FEET WITH NO
      SIGNIFICANT WEATHER AND/OR OBSTRUCTIONS TO VISIBILITY.

  * THESE STATIONS ARE PART OF THE UNIVERSITY OF SOUTH ALABAMA
    MESONET AND ARE NOT UNDER NWS OR FAA QUALITY CONTROL.

ALZ061>064-241900-
COASTAL ALABAMA

CITY           SKY/WX    TMP DP  RH WIND       PRES   REMARKS
MOBILE REG APT CLOUDY    80  70  71 E6        29.98F
6HR MIN TEMP:  70; 6HR MAX TEMP:  80; 6HR PCP:  0.01;

BROOKLEY FIELD CLOUDY    79  72  79 NE6       29.98F
6HR MIN TEMP:  72; 6HR MAX TEMP:  80;

USA CAMPUS*    NOT AVBL
DOG RIVER*     NOT AVBL


CITY           SKY/WX    TMP DP  RH WIND       PRES   REMARKS
GULF SHORES    CLOUDY    79  73  82 NE7       29.96F

$$

ALZ051>060-241900-
INTERIOR SOUTHWEST AND SOUTH CENTRAL ALABAMA

CITY           SKY/WX    TMP DP  RH WIND       PRES   REMARKS
GREENVILLE     PTSUNNY   85  64  49 E10       29.99F
6HR MIN TEMP:  69; 6HR MAX TEMP:  86;

EVERGREEN      PTSUNNY   85  63  47 E12       29.99F
6HR MIN TEMP:  67; 6HR MAX TEMP:  85;

ATMORE*          N/A    N/A N/A N/A NE8         N/A
ANDALUSIA/OPP  PTSUNNY   87  67  51 E9        29.97F
6HR MIN TEMP:  72; 6HR MAX TEMP:  88;

ANDALUSIA*       N/A     82  68  61 E12       29.98F
FLORALA APT    NOT AVBL
FLORALA*         N/A     82  70  65 N3        30.65F

$$

FLZ001>006-241900-
WESTERN FLORIDA PANHANDLE

CITY           SKY/WX    TMP DP  RH WIND       PRES   REMARKS
PENSACOLA      PTSUNNY   81  71  71 E6        29.96F
6HR MIN TEMP:  75; 6HR MAX TEMP:  82; 6HR PCP:  0.01;

NAS PENSACOLA  CLOUDY    78  71  79 E7        29.96F
6HR MIN TEMP:  72; 6HR MAX TEMP:  78; 6HR PCP:  0.03;

MILTON         CLOUDY    81  70  69 E7        29.97F
6HR MIN TEMP:  70; 6HR MAX TEMP:  82;

WHTNG S FIELD  NOT AVBL


CITY           SKY/WX    TMP DP  RH WIND       PRES   REMARKS
JAY*             N/A     82  63  51 NE7       29.96F
DUKE FIELD     CLOUDY    79  70  73 N3        29.96F
CRESTVIEW      LGT RAIN  81  70  69 CALM      29.98F
6HR MIN TEMP:  70; 6HR MAX TEMP:  82; 6HR PCP: TRACE;

VALPARAISO     PTSUNNY   79  72  77 N3        29.95F
6HR MIN TEMP:  73; 6HR MAX TEMP:  79; 6HR PCP: TRACE;

DESTIN         CLOUDY    83  72  69 N5        29.95F
6HR MIN TEMP:  78; 6HR MAX TEMP:  83; 6HR PCP: TRACE;


$$

MSZ076-079-241900-
INTERIOR SOUTHEAST MISSISSIPPI

CITY           SKY/WX    TMP DP  RH WIND       PRES   REMARKS
LEAKESVILLE*     N/A     82  72  69 S8        29.97F
AGRICOLA*        N/A     79  70  73 CALM      29.97F

$$

MARINE OBSERVATIONS

STATION/POSITION TIME  TEMP    WIND        PRES    WAVE
                       AIR SEA DIR/SP/G            HT/PER
                 (UTC) (F)     (DEG/KT/KT) (MB)    (FT/S)
PASCAGOULA       1748   79      90/  9/ 11 1014.5S
PETIT BOIS ISLND 1748   80      90/ 11/ 14 1015.2F
GRAND BAY        1630   77      80/  8     1015.0F
KATRINA CUT      1730   77      80/ 10     1015.2R
CEDAR POINT      1730   76      70/  7     1015.2R
E DAUPHIN ISLAND 1700   76      80/ 10/ 12 1014.7R
MIDDLE BAY LIGHT 1730   76      50/  8     1015.2R
USCG MOBILE BAY  1748   78 83   70/  4/  5 1014.9F
STATE DOCKS      1748   80 82              1014.8F
MEAHER PARK      1730   78      60/  3     1014.6F
WEEKS BAY        1645   75                 1015.0S
FORT MORGAN      1748   78      70/  9/ 11   N/A
12 S ORANGE BCH  1750   75 83  120/ 10/ 12 1014.0F   2/ 5
PENSACOLA BAY    1748   79 83              1014.8F
64 S DAUPHIN ISL 1800   78 83   90/ 16/ 17 1013.2
67 S FORT MORGAN 1730   81                 1012.5S

$$

SELECTED LOCATIONS ACROSS THE REGION

CITY           SKY/WX    TMP DP  RH WIND       PRES   REMARKS
NEW ORLEANS    PTSUNNY   83  70  64 E13       29.93S
GULFPORT       CLOUDY    85  70  60 E12G20    29.95S
PASCAGOULA AP  CLOUDY    80  67  64 E6        29.96F
PASCAGOULA*      N/A     77  68  73 SE5         N/A
HATTIESBURG    MOSUNNY   86  71  60 E8        29.96F
LAUREL         PTSUNNY   87  69  54 E8        29.97F
MERIDIAN       PTSUNNY   88  68  51 E8        29.98F
JACKSON        MOSUNNY   88  67  49 VRB5      29.97F
MONTGOMERY     PTSUNNY   90  64  42 E10       30.00F
TROY           MOSUNNY   84  66  54 NE9       30.00F
ASHFORD*         N/A     82  68  61 E12       29.98F
DOTHAN         PTSUNNY   86  67  52 E10G20    30.01F
PANAMA CITY    PTSUNNY   84  71  65 NE6       29.94F

$$





USA.gov is the U.S. government's official web portal to all federal, state and local government web resources and services.